Location: Meriden
(44.0740°N, 93.3870°W)
Time: 16:42:48
(UTC-06:00)

Amateur Radio Satellites - All Passes

Search period start: 01 February 2015 16:12
Search period end: 02 February 2015 16:12
Location: Meriden, 44.0740°N, 93.3870°W

Satellite Date Start Highest point End Downlink Frequencies (MHz)
Time Altitude Azimuth
CUTE-I 01 Feb 16:18:08 16:21:40 19° 61° (ENE) 16:25:23 437.470
KKS-1 01 Feb 16:21:46 16:24:50 18° 296° (WNW) 16:27:44 437.445
DANDE 01 Feb 16:23:11 16:27:37 20° 279° (W) 16:31:08 436.750
CUSAT 1 01 Feb 16:34:14 16:36:29 12° 283° (WNW) 16:38:15 437.405
MOZHAYETS 4 01 Feb 16:49:13 16:53:39 48° 99° (E) 16:58:05
O/OREOS (USA 219) 01 Feb 17:04:47 17:08:17 21° 308° (NW) 17:11:43 437.305
SO-50 01 Feb 17:05:36 17:09:45 27° 41° (NE) 17:13:59 436.795
AO-7 01 Feb 17:06:34 17:13:07 24° 270° (W) 17:19:22 29.400- 29.500
M-CUBED/EXP-1 PRIME 01 Feb 17:15:01 17:16:57 14° 299° (WNW) 17:18:48 437.505
JAS-2 01 Feb 17:17:51 17:22:08 23° 267° (W) 17:26:11 435.910
Cubesat XI-IV 01 Feb 17:37:02 17:42:22 86° 76° (ENE) 17:47:46 437.490
CUTE-I 01 Feb 17:55:59 18:01:17 67° 258° (WSW) 18:06:38 437.470
MOZHAYETS 4 01 Feb 18:27:16 18:30:35 20° 295° (WNW) 18:33:47
YUBILEINY 01 Feb 18:34:14 18:41:58 39° 87° (E) 18:49:52 435.215
BRITE-PL 01 Feb 18:41:06 18:44:37 19° 61° (ENE) 18:48:26 437.365/2234.400
SO-50 01 Feb 18:45:49 18:50:37 53° 240° (WSW) 18:55:24 436.795
HO-68 01 Feb 18:51:02 18:56:57 30° 60° (ENE) 19:03:00 435.675
STRAND 1 01 Feb 18:51:44 18:56:42 47° 99° (E) 19:01:40 437.568
CUBESAT XI-V 01 Feb 18:52:09 18:56:51 71° 101° (ESE) 19:01:33 437.345
PRISM 01 Feb 18:56:36 19:00:47 76° 284° (WNW) 19:04:56 437.425
SEEDS 01 Feb 18:57:56 18:59:15 11° 62° (ENE) 19:00:46 437.485
COMPASS 1 01 Feb 19:17:44 19:20:09 15° 64° (ENE) 19:22:43 437.405
Cubesat XI-IV 01 Feb 19:20:50 19:23:18 13° 274° (W) 19:25:28 437.490
AAUSAT CUBESAT 2 01 Feb 19:40:08 19:43:23 23° 67° (ENE) 19:46:43 437.432
CANX-2 01 Feb 19:41:47 19:45:47 40° 72° (ENE) 19:49:49 2200.000
DOVE 4 01 Feb 19:47:51 19:52:31 36° 68° (ENE) 19:57:22 437.250
DX 1 01 Feb 19:51:14 19:51:47 10° 59° (ENE) 19:52:35 434.975-435.025
GOMX 1 01 Feb 19:53:12 19:58:15 53° 72° (ENE) 20:03:36 467.674
CUBEBUG 2 01 Feb 19:55:17 19:57:53 15° 62° (ENE) 20:00:40 437.445
FUNcube-1 01 Feb 19:58:29 19:59:22 11° 60° (ENE) 20:00:29 145.935
CUTE 1.7 + AOD 2 01 Feb 20:05:05 20:09:20 66° 75° (ENE) 20:13:36 437.475
ISS 01 Feb 20:05:20 20:07:53 21° 136° (SE) 20:10:29 145.825
BRITE-PL 01 Feb 20:17:20 20:22:32 71° 259° (W) 20:28:07 437.365/2234.400
Oscar 11 01 Feb 20:20:38 20:24:26 31° 69° (ENE) 20:28:19 145.826/435.025
UWE-3 01 Feb 20:25:51 20:29:34 24° 67° (ENE) 20:33:22 435.000/436.395/437.385
SEEDS 01 Feb 20:30:17 20:34:34 78° 259° (W) 20:38:49 437.485
YUBILEINY 01 Feb 20:30:18 20:38:40 49° 287° (WNW) 20:47:03 435.215
CUBESAT XI-V 01 Feb 20:31:09 20:33:49 15° 298° (WNW) 20:36:18 437.345
STRAND 1 01 Feb 20:31:31 20:35:40 24° 296° (WNW) 20:39:43 437.568
AISAT 01 Feb 20:33:13 20:34:36 12° 60° (ENE) 20:36:14 437.250
HO-68 01 Feb 20:37:14 20:44:18 61° 258° (WSW) 20:51:23 435.675
CINEMA 3 01 Feb 20:43:06 20:48:02 67° 75° (ENE) 20:53:05 145.822/145.860
DELFI C3 01 Feb 20:47:52 20:51:45 47° 73° (ENE) 20:55:41 145.870
COMPASS 1 01 Feb 20:51:22 20:55:31 54° 260° (W) 20:59:39 437.405
HUMSAT D 01 Feb 20:53:57 20:57:07 20° 66° (ENE) 21:00:23 437.325/437.525
VELOX 1 01 Feb 20:57:29 21:00:34 19° 64° (ENE) 21:03:48 145.980
UKube-1 01 Feb 20:57:48 21:01:54 45° 71° (ENE) 21:06:05 .
AIST 1 01 Feb 21:03:36 21:06:40 19° 69° (ENE) 21:09:50
AAUSAT CUBESAT 2 01 Feb 21:15:03 21:18:54 34° 264° (W) 21:22:44 437.432
CANX-2 01 Feb 21:18:47 21:21:56 19° 269° (W) 21:25:00 2200.000
ZACube-1 01 Feb 21:19:52 21:24:27 66° 74° (ENE) 21:29:03 437.345
DX 1 01 Feb 21:23:03 21:27:24 88° 77° (ENE) 21:31:49 434.975-435.025
DOVE 4 01 Feb 21:25:41 21:30:18 32° 267° (W) 21:35:00 437.250
50 SAT 01 Feb 21:28:51 21:32:33 33° 70° (ENE) 21:36:18 437.505
CUBEBUG 2 01 Feb 21:29:18 21:34:05 73° 259° (WSW) 21:38:53 437.445
FUNcube-1 01 Feb 21:30:26 21:35:03 84° 76° (ENE) 21:39:41 145.935
GOMX 1 01 Feb 21:32:43 21:36:47 22° 271° (W) 21:40:50 467.674
UNISAT 6 01 Feb 21:40:30 21:41:49 11° 86° (E) 21:43:24 437.425
ISS 01 Feb 21:40:54 21:44:09 56° 333° (NNW) 21:47:24 145.825
CUTE 1.7 + AOD 2 01 Feb 21:44:03 21:45:48 12° 273° (W) 21:47:19 437.475
Oscar 11 01 Feb 21:57:00 22:00:40 26° 266° (W) 22:04:17 145.826/435.025
UWE-3 01 Feb 22:01:29 22:05:55 40° 263° (W) 22:10:21 435.000/436.395/437.385
QB50P2 01 Feb 22:02:29 22:03:56 12° 87° (E) 22:05:36 145.880/145.840
AISAT 01 Feb 22:06:09 22:10:37 86° 254° (WSW) 22:15:09 437.250
QB50P1 01 Feb 22:09:46 22:11:58 14° 89° (E) 22:14:21 145.935-145.965
ANTELSAT 01 Feb 22:14:55 22:18:39 27° 94° (E) 22:22:22 437.575/2403.000
TIGRISAT 01 Feb 22:20:13 22:24:05 30° 95° (E) 22:27:55 435.000
ESTCUBE 1 01 Feb 22:21:41 22:26:06 61° 73° (ENE) 22:30:32 437.505/2401.250
CINEMA 3 01 Feb 22:22:43 22:25:48 16° 273° (W) 22:28:43 145.822/145.860
TISAT 1 01 Feb 22:23:54 22:26:21 15° 63° (ENE) 22:28:57 437.305
DELFI C3 01 Feb 22:24:51 22:27:19 15° 270° (W) 22:29:38 145.870
POLYITAN 1 01 Feb 22:26:24 22:29:42 21° 92° (E) 22:33:04 437.675
HUMSAT D 01 Feb 22:28:33 22:32:41 41° 263° (W) 22:36:49 437.325/437.525
CUBEBUG 1 01 Feb 22:28:43 22:33:02 66° 74° (ENE) 22:37:24 437.445
VELOX 1 01 Feb 22:32:35 22:36:52 47° 261° (W) 22:41:12 145.980
UKube-1 01 Feb 22:35:21 22:38:22 18° 269° (W) 22:41:15 .
AIST 1 01 Feb 22:40:27 22:44:36 41° 267° (W) 22:48:42
POPSAT HIP 1 01 Feb 22:43:51 22:47:44 32° 96° (E) 22:51:36 437.405
DUCHIFAT 1 01 Feb 22:44:07 22:47:59 32° 96° (E) 22:51:50 145.980
ZACube-1 01 Feb 22:58:54 23:01:21 14° 272° (W) 23:03:35 437.345
50 SAT 01 Feb 23:04:29 23:07:46 22° 267° (W) 23:10:58 437.505
FUNcube-1 01 Feb 23:10:58 23:12:06 11° 275° (W) 23:12:57 145.935
UNISAT 6 01 Feb 23:14:50 23:19:17 70° 285° (WNW) 23:23:34 437.425
BEESAT 01 Feb 23:18:19 23:19:31 11° 59° (ENE) 23:20:58 436.000
ISS 01 Feb 23:18:25 23:21:07 22° 353° (N) 23:23:48 145.825
NANOSAT C BR1 01 Feb 23:19:23 23:23:43 79° 103° (ESE) 23:27:59 145.865
ITUPSAT 1 01 Feb 23:24:03 23:25:54 12° 59° (ENE) 23:27:58 437.325
SPROUT 01 Feb 23:34:12 23:38:32 82° 76° (ENE) 23:42:54 437.525
BUGSAT 1 01 Feb 23:34:37 23:38:56 89° 103° (ESE) 23:43:13 437.445
QB50P2 01 Feb 23:36:07 23:40:25 68° 286° (WNW) 23:44:40 145.880/145.840
QB50P1 01 Feb 23:44:04 23:48:18 56° 287° (WNW) 23:52:30 145.935-145.965
ANTELSAT 01 Feb 23:51:36 23:55:30 30° 292° (WNW) 23:59:15 437.575/2403.000
O/OREOS (USA 219) 01 Feb 23:54:25 23:57:10 16° 49° (NE) 00:00:05 437.305
TIGRISAT 01 Feb 23:57:01 00:00:48 27° 293° (WNW) 00:04:27 435.000
TISAT 1 01 Feb 23:57:36 00:01:47 56° 260° (W) 00:06:00 437.305
ESTCUBE 1 02 Feb 00:01:00 00:03:28 14° 271° (W) 00:05:45 437.505/2401.250
POLYITAN 1 02 Feb 00:01:48 00:05:48 36° 290° (WNW) 00:09:44 437.675
CUBEBUG 1 02 Feb 00:08:03 00:09:59 12° 273° (W) 00:11:41 437.445
BEESAT 2 02 Feb 00:19:01 00:20:11 11° 109° (ESE) 00:21:35 435.950
POPSAT HIP 1 02 Feb 00:19:58 00:23:32 25° 293° (WNW) 00:27:00 437.405
DUCHIFAT 1 02 Feb 00:20:10 00:23:44 25° 293° (WNW) 00:27:13 145.980
BEESAT 3 02 Feb 00:27:30 00:30:00 16° 112° (ESE) 00:32:39 437.485
GONETS M04 02 Feb 00:36:48 00:45:07 52° 90° (E) 00:53:29
SWISSCUBE 02 Feb 00:37:00 00:41:42 64° 73° (ENE) 00:46:25 437.505
BEESAT 02 Feb 00:51:55 00:56:41 83° 74° (ENE) 01:01:28 436.000
ISS 02 Feb 00:55:28 00:58:18 26° 13° (NNE) 01:01:09 145.825
NANOSAT C BR1 02 Feb 00:57:26 00:59:02 12° 299° (WNW) 01:00:26 145.865
ITUPSAT 1 02 Feb 00:58:25 01:03:11 87° 260° (W) 01:08:00 437.325
Oscar 19 02 Feb 01:12:33 01:17:12 34° 96° (E) 01:21:52 437.125/150
BUGSAT 1 02 Feb 01:12:59 01:13:49 10° 300° (WNW) 01:14:27 437.445
Gurwin Techsat 1B 02 Feb 01:22:49 01:22:57 10° 84° (E) 01:23:28 435.225
AUBIESAT-1 02 Feb 01:26:42 01:28:26 13° 60° (ENE) 01:30:15 437.475
STARS 02 Feb 01:28:47 01:32:31 28° 68° (ENE) 01:36:22 437.465
O/OREOS (USA 219) 02 Feb 01:32:35 01:37:11 71° 249° (WSW) 01:41:45 437.305
ITAMSAT 1 02 Feb 01:38:13 01:42:08 22° 91° (E) 01:46:10 435.822/435.867
KKS-1 02 Feb 01:43:39 01:48:03 57° 73° (ENE) 01:52:30 437.445
BEESAT 2 02 Feb 01:53:43 01:57:51 77° 305° (NW) 02:02:04 435.950
BEESAT 3 02 Feb 02:03:44 02:07:46 54° 308° (NW) 02:11:52 437.485
PCSat 02 Feb 02:08:55 02:10:21 11° 103° (ESE) 02:12:08 145.827
DANDE 02 Feb 02:09:54 02:14:12 16° 79° (E) 02:19:00 436.750
AIST 2 02 Feb 02:11:03 02:15:16 69° 122° (ESE) 02:19:34 435.215
CUSAT 1 02 Feb 02:15:37 02:21:00 20° 83° (E) 02:26:42 437.405
SWISSCUBE 02 Feb 02:17:21 02:20:07 15° 272° (W) 02:22:39 437.505
M-CUBED/EXP-1 PRIME 02 Feb 02:29:32 02:33:24 77° 71° (ENE) 02:37:00 437.505
ISS 02 Feb 02:31:48 02:35:06 89° 340° (NNW) 02:38:25 145.825
BEESAT 02 Feb 02:33:44 02:35:17 11° 274° (W) 02:36:31 436.000
GONETS M04 02 Feb 02:34:16 02:42:18 38° 291° (WNW) 02:50:12
Oscar 19 02 Feb 02:51:58 02:56:32 32° 293° (WNW) 03:01:00 437.125/150
Gurwin Techsat 1B 02 Feb 02:58:35 03:03:55 80° 102° (ESE) 03:09:16 435.225
AUBIESAT-1 02 Feb 02:59:21 03:03:07 51° 254° (WSW) 03:06:37 437.475
STARS 02 Feb 03:04:58 03:08:57 31° 264° (W) 03:12:55 437.465
RS-15 02 Feb 03:06:26 03:15:02 29° 106° (ESE) 03:24:02 29.354- 29.394
AO-7 02 Feb 03:12:03 03:18:11 23° 90° (E) 03:24:37 29.400- 29.500
ITAMSAT 1 02 Feb 03:16:54 03:21:59 51° 290° (WNW) 03:27:02 435.822/435.867
KKS-1 02 Feb 03:22:28 03:25:09 15° 271° (W) 03:27:39 437.445
HORYU 2 02 Feb 03:25:01 03:29:19 46° 99° (E) 03:33:35 437.375
BEESAT 2 02 Feb 03:34:40 03:36:50 13° 326° (NW) 03:38:54 435.950
BEESAT 3 02 Feb 03:45:49 03:46:53 11° 330° (NNW) 03:47:51 437.485
PCSat 02 Feb 03:47:35 03:53:00 81° 121° (ESE) 03:58:28 145.827
DANDE 02 Feb 03:48:05 03:56:29 69° 96° (E) 04:04:55 436.750
AIST 2 02 Feb 03:51:17 03:54:22 19° 322° (NW) 03:57:25 435.215
MOZHAYETS 4 02 Feb 03:52:34 03:57:01 53° 73° (ENE) 04:01:30
CUSAT 1 02 Feb 03:54:47 04:03:13 84° 99° (E) 04:11:24 437.405
ISS 02 Feb 04:09:37 04:11:11 13° 227° (SW) 04:12:40 145.825
PRISM 02 Feb 04:17:15 04:17:37 10° 61° (ENE) 04:18:12 437.425
JAS-2 02 Feb 04:22:05 04:27:27 37° 97° (E) 04:33:29 435.910
CUBESAT XI-V 02 Feb 04:24:37 04:24:49 10° 59° (ENE) 04:25:17 437.345
STRAND 1 02 Feb 04:34:09 04:35:42 12° 57° (ENE) 04:37:31 437.568
Gurwin Techsat 1B 02 Feb 04:40:06 04:43:19 16° 300° (WNW) 04:46:21 435.225
YUBILEINY 02 Feb 04:42:21 04:48:31 21° 59° (ENE) 04:55:02 435.215
HORYU 2 02 Feb 05:02:29 05:05:42 19° 296° (WNW) 05:08:47 437.375
AO-7 02 Feb 05:03:38 05:12:00 80° 291° (WNW) 05:20:17 29.400- 29.500
RS-15 02 Feb 05:15:26 05:26:22 79° 307° (NW) 05:37:31 29.354- 29.394
MOZHAYETS 4 02 Feb 05:31:40 05:34:39 16° 271° (W) 05:37:28
DANDE 02 Feb 05:33:01 05:40:37 33° 295° (WNW) 05:47:53 436.750
PCSat 02 Feb 05:33:04 05:37:08 21° 320° (NW) 05:41:07 145.827
CUSAT 1 02 Feb 05:40:20 05:47:11 26° 298° (WNW) 05:53:30 437.405
PRISM 02 Feb 05:48:28 05:52:34 84° 256° (WSW) 05:56:43 437.425
Cubesat XI-IV 02 Feb 05:53:14 05:57:55 31° 95° (E) 06:02:41 437.490
CUBESAT XI-V 02 Feb 05:56:58 06:01:34 80° 75° (ENE) 06:06:14 437.345
JAS-2 02 Feb 06:07:18 06:12:36 37° 292° (WNW) 06:18:24 435.910
STRAND 1 02 Feb 06:09:03 06:14:09 78° 73° (ENE) 06:19:17 437.568
CUTE-I 02 Feb 06:11:40 06:16:48 44° 98° (E) 06:21:55 437.470
YUBILEINY 02 Feb 06:37:58 06:46:48 90° 306° (NW) 06:55:39 435.215
AO-7 02 Feb 06:57:49 07:03:42 21° 311° (NW) 07:09:17 29.400- 29.500
PHONESAT 2.4 02 Feb 07:09:46 07:12:03 16° 153° (SSE) 07:14:24 2401.200-2431.200
VERMONT LUNAR 02 Feb 07:21:54 07:24:50 26° 161° (SSE) 07:27:48 437.305
RS-15 02 Feb 07:31:14 07:40:50 32° 336° (NNW) 07:50:31 29.354- 29.394
Cubesat XI-IV 02 Feb 07:33:09 07:38:07 38° 292° (WNW) 07:43:02 437.490
CUBESAT XI-V 02 Feb 07:38:25 07:39:45 11° 274° (W) 07:40:49 437.345
STRAND 1 02 Feb 07:51:29 07:54:04 13° 273° (W) 07:56:23 437.568
CUTE-I 02 Feb 07:52:10 07:56:42 28° 295° (WNW) 08:01:08 437.470
GOMX 1 02 Feb 07:55:31 07:58:33 16° 86° (E) 08:01:44 467.674
HO-68 02 Feb 08:03:54 08:09:28 25° 91° (E) 08:15:15 435.675
SEEDS 02 Feb 08:14:45 08:17:15 16° 90° (E) 08:19:55 437.485
BRITE-PL 02 Feb 08:21:13 08:26:28 39° 95° (E) 08:31:29 437.365/2234.400
COMPASS 1 02 Feb 08:34:22 08:37:33 21° 93° (E) 08:40:48 437.405
BEESAT 2 02 Feb 08:35:06 08:37:46 16° 37° (NE) 08:40:29 435.950
YUBILEINY 02 Feb 08:36:39 08:42:34 20° 282° (WNW) 08:48:04 435.215
CINEMA 3 02 Feb 08:38:45 08:41:19 15° 87° (E) 08:44:00 145.822/145.860
UNISAT 6 02 Feb 08:40:37 08:43:13 15° 63° (ENE) 08:46:00 437.425
BEESAT 3 02 Feb 08:44:23 08:47:30 20° 40° (NE) 08:50:41 437.485
PHONESAT 2.4 02 Feb 08:46:43 08:50:06 39° 169° (S) 08:53:31 2401.200-2431.200
AIST 2 02 Feb 08:54:31 08:56:34 13° 33° (NNE) 08:58:43 435.215
AAUSAT CUBESAT 2 02 Feb 08:56:50 09:00:34 32° 96° (E) 09:04:20 437.432
QB50P2 02 Feb 08:57:35 08:59:16 12° 62° (ENE) 09:01:09 145.880/145.840
VERMONT LUNAR 02 Feb 08:59:14 09:02:34 46° 178° (S) 09:05:56 437.305
CANX-2 02 Feb 09:01:23 09:05:36 66° 100° (E) 09:09:47 2200.000
SO-50 02 Feb 09:01:53 09:06:02 36° 117° (ESE) 09:10:22 436.795
QB50P1 02 Feb 09:04:42 09:06:56 14° 63° (ENE) 09:09:20 145.935-145.965
ZACube-1 02 Feb 09:10:00 09:11:13 11° 86° (E) 09:12:40 437.345
DX 1 02 Feb 09:11:42 09:13:51 14° 89° (E) 09:16:12 434.975-435.025
ANTELSAT 02 Feb 09:15:13 09:19:21 32° 69° (ENE) 09:23:29 437.575/2403.000
FUNcube-1 02 Feb 09:19:30 09:21:47 14° 88° (E) 09:24:14 145.935
TIGRISAT 02 Feb 09:20:10 09:24:23 34° 69° (ENE) 09:28:37 435.000
CUBEBUG 2 02 Feb 09:20:18 09:23:45 22° 91° (E) 09:27:12 437.445
POLYITAN 1 02 Feb 09:21:25 09:24:38 21° 66° (ENE) 09:27:58 437.675
DOVE 4 02 Feb 09:23:13 09:28:24 73° 102° (ESE) 09:33:15 437.250
CUTE 1.7 + AOD 2 02 Feb 09:24:53 09:29:08 75° 284° (WNW) 09:33:19 437.475
GOMX 1 02 Feb 09:31:59 09:37:23 71° 286° (WNW) 09:42:27 467.674
DUCHIFAT 1 02 Feb 09:38:21 09:42:03 30° 69° (ENE) 09:45:50 145.980
POPSAT HIP 1 02 Feb 09:38:23 09:42:07 30° 69° (ENE) 09:45:56 437.405
Oscar 11 02 Feb 09:42:07 09:46:20 50° 99° (E) 09:50:31 145.826/435.025
RS-15 02 Feb 09:48:45 09:57:40 27° 10° (N) 10:06:57 29.354- 29.394
SEEDS 02 Feb 09:49:23 09:53:25 47° 288° (WNW) 09:57:26 437.485
UWE-3 02 Feb 09:50:22 09:54:30 37° 96° (E) 09:58:32 435.000/436.395/437.385
HO-68 02 Feb 09:50:44 09:57:51 67° 291° (WNW) 10:04:55 435.675
AISAT 02 Feb 09:56:57 09:59:49 17° 90° (E) 10:02:49 437.250
BRITE-PL 02 Feb 09:59:52 10:04:52 32° 294° (WNW) 10:09:34 437.365/2234.400
DELFI C3 02 Feb 10:01:37 10:05:39 68° 100° (E) 10:09:41 145.870
COMPASS 1 02 Feb 10:09:36 10:13:24 34° 290° (WNW) 10:17:08 437.405
HUMSAT D 02 Feb 10:11:53 10:15:30 28° 94° (E) 10:19:08 437.325/437.525
BEESAT 2 02 Feb 10:12:20 10:16:32 79° 237° (WSW) 10:20:40 435.950
NANOSAT C BR1 02 Feb 10:13:23 10:17:39 71° 75° (ENE) 10:21:57 145.865
CINEMA 3 02 Feb 10:14:21 10:19:07 62° 286° (WNW) 10:23:37 145.822/145.860
UNISAT 6 02 Feb 10:14:52 10:19:34 68° 259° (WSW) 10:24:14 437.425
ESTCUBE 1 02 Feb 10:15:17 10:16:43 12° 87° (E) 10:18:24 437.505/2401.250
CUBEBUG 1 02 Feb 10:18:38 10:19:58 11° 87° (E) 10:21:32 437.445
UKube-1 02 Feb 10:19:53 10:24:16 69° 102° (ESE) 10:28:36 .
BEESAT 3 02 Feb 10:21:54 10:25:59 55° 240° (WSW) 10:29:59 437.485
VELOX 1 02 Feb 10:22:01 10:25:57 29° 95° (E) 10:29:54 145.980
PHONESAT 2.4 02 Feb 10:24:55 10:28:23 45° 186° (S) 10:31:52 2401.200-2431.200
BUGSAT 1 02 Feb 10:26:07 10:30:14 75° 76° (ENE) 10:34:27 437.445
QB50P2 02 Feb 10:30:22 10:34:40 74° 259° (WSW) 10:39:01 145.880/145.840
AIST 2 02 Feb 10:31:43 10:36:02 71° 54° (NE) 10:40:15 435.215
AAUSAT CUBESAT 2 02 Feb 10:32:48 10:36:07 23° 292° (WNW) 10:39:20 437.432
VERMONT LUNAR 02 Feb 10:37:11 10:40:23 34° 194° (SSW) 10:43:35 437.305
QB50P1 02 Feb 10:38:08 10:42:23 62° 259° (W) 10:46:41 145.935-145.965
CANX-2 02 Feb 10:39:03 10:41:05 13° 297° (WNW) 10:42:56 2200.000
50 SAT 02 Feb 10:41:31 10:45:23 43° 98° (E) 10:49:13 437.505
SO-50 02 Feb 10:42:25 10:46:38 33° 316° (NW) 10:50:57 436.795
ZACube-1 02 Feb 10:43:50 10:48:15 71° 285° (WNW) 10:52:30 437.345
GONETS M04 02 Feb 10:45:19 10:52:23 28° 63° (ENE) 10:59:39
DX 1 02 Feb 10:46:13 10:50:35 61° 287° (WNW) 10:54:54 434.975-435.025
PCSat 02 Feb 10:51:38 10:55:20 18° 38° (NE) 10:59:07 145.827
ANTELSAT 02 Feb 10:51:59 10:56:08 30° 265° (W) 11:00:13 437.575/2403.000
FUNcube-1 02 Feb 10:54:18 10:58:37 55° 287° (WNW) 11:02:48 145.935
POLYITAN 1 02 Feb 10:56:19 11:00:22 39° 262° (W) 11:04:27 437.675
CUBEBUG 2 02 Feb 10:56:26 11:00:39 38° 290° (WNW) 11:04:42 437.445
TIGRISAT 02 Feb 10:57:09 11:01:12 27° 266° (W) 11:05:08 435.000
DOVE 4 02 Feb 11:02:20 11:05:33 16° 299° (WNW) 11:08:30 437.250
AIST 1 02 Feb 11:11:10 11:15:25 76° 279° (W) 11:19:43
GOMX 1 02 Feb 11:12:51 11:14:33 11° 304° (WNW) 11:15:58 467.674
DUCHIFAT 1 02 Feb 11:14:17 11:17:56 26° 266° (W) 11:21:33 145.980
POPSAT HIP 1 02 Feb 11:14:24 11:18:03 26° 266° (W) 11:21:40 437.405
Oscar 11 02 Feb 11:19:20 11:22:10 17° 296° (WNW) 11:24:53 145.826/435.025
SPROUT 02 Feb 11:21:20 11:23:21 13° 88° (E) 11:25:36 437.525
UWE-3 02 Feb 11:27:20 11:30:52 23° 294° (WNW) 11:34:14 435.000/436.395/437.385
AISAT 02 Feb 11:32:24 11:36:49 51° 288° (WNW) 11:41:10 437.250
DELFI C3 02 Feb 11:38:51 11:40:25 12° 297° (WNW) 11:41:48 145.870
HO-68 02 Feb 11:40:31 11:44:25 15° 310° (NW) 11:48:00 435.675
TISAT 1 02 Feb 11:41:44 11:44:58 21° 92° (E) 11:48:16 437.305
HUMSAT D 02 Feb 11:47:41 11:51:17 27° 292° (WNW) 11:54:45 437.325/437.525
ESTCUBE 1 02 Feb 11:49:41 11:54:14 75° 285° (WNW) 11:58:45 437.505/2401.250
CUBEBUG 1 02 Feb 11:52:29 11:56:57 74° 285° (WNW) 12:01:24 437.445
NANOSAT C BR1 02 Feb 11:52:44 11:54:07 11° 273° (W) 11:55:15 145.865
UKube-1 02 Feb 11:57:42 11:59:57 14° 298° (WNW) 12:02:01 .
VELOX 1 02 Feb 11:58:35 12:02:31 29° 292° (WNW) 12:06:23 145.980
RS-15 02 Feb 12:02:34 12:13:29 52° 42° (NE) 12:24:55 29.354- 29.394
PHONESAT 2.4 02 Feb 12:03:39 12:06:32 22° 202° (SSW) 12:09:25 2401.200-2431.200
AIST 2 02 Feb 12:12:06 12:14:08 13° 250° (WSW) 12:15:57 435.215
VERMONT LUNAR 02 Feb 12:16:21 12:17:54 12° 209° (SSW) 12:19:24 437.305
50 SAT 02 Feb 12:17:32 12:20:12 17° 295° (WNW) 12:22:45 437.505
AO-7 02 Feb 12:29:08 12:29:14 10° 37° (NE) 12:29:47 29.400- 29.500
Oscar 19 02 Feb 12:30:39 12:35:44 58° 72° (ENE) 12:40:51 437.125/150
PCSat 02 Feb 12:34:07 12:39:37 87° 64° (ENE) 12:45:02 145.827
SWISSCUBE 02 Feb 12:37:25 12:40:01 15° 89° (E) 12:42:50 437.505
GONETS M04 02 Feb 12:41:29 12:50:08 70° 266° (W) 12:58:44
Gurwin Techsat 1B 02 Feb 12:43:10 12:46:59 21° 63° (ENE) 12:50:58 435.225
BEESAT 02 Feb 12:51:44 12:55:04 19° 91° (E) 12:58:32 436.000
SPROUT 02 Feb 12:55:38 12:59:57 61° 286° (WNW) 13:04:14 437.525
ITAMSAT 1 02 Feb 12:57:26 13:02:10 38° 68° (ENE) 13:06:59 435.822/435.867
ITUPSAT 1 02 Feb 12:58:22 13:02:00 22° 92° (E) 13:05:45 437.325
TISAT 1 02 Feb 13:16:57 13:20:57 37° 289° (WNW) 13:24:53 437.305
O/OREOS (USA 219) 02 Feb 14:10:49 14:11:44 11° 98° (E) 14:12:55 437.305
Oscar 19 02 Feb 14:11:50 14:15:32 19° 270° (W) 14:19:04 437.125/150
AO-7 02 Feb 14:12:21 14:19:49 39° 59° (ENE) 14:27:24 29.400- 29.500
SWISSCUBE 02 Feb 14:13:40 14:18:26 64° 287° (WNW) 14:23:10 437.505
RS-15 02 Feb 14:15:11 14:26:14 57° 245° (WSW) 14:37:37 29.354- 29.394
PCSat 02 Feb 14:19:35 14:22:22 14° 255° (WSW) 14:24:51 145.827
Gurwin Techsat 1B 02 Feb 14:21:22 14:26:36 58° 260° (W) 14:31:52 435.225
HORYU 2 02 Feb 14:24:46 14:29:07 52° 72° (ENE) 14:33:30 437.375
BEESAT 02 Feb 14:28:38 14:33:16 50° 289° (WNW) 14:37:52 436.000
DANDE 02 Feb 14:32:53 14:39:06 54° 73° (ENE) 14:43:39 436.750
ITUPSAT 1 02 Feb 14:35:35 14:40:09 44° 290° (WNW) 14:44:41 437.325
CUSAT 1 02 Feb 14:36:59 14:42:50 70° 77° (ENE) 14:47:05 437.405
ITAMSAT 1 02 Feb 14:37:16 14:41:47 29° 266° (W) 14:46:15 435.822/435.867
JAS-2 02 Feb 14:38:59 14:42:02 16° 61° (ENE) 14:45:14 435.910
GONETS M04 02 Feb 14:41:31 14:45:31 13° 285° (WNW) 14:48:55
STARS 02 Feb 14:53:01 14:57:15 42° 98° (E) 15:01:29 437.465
KKS-1 02 Feb 15:09:53 15:14:25 84° 285° (WNW) 15:18:53 437.445
M-CUBED/EXP-1 PRIME 02 Feb 15:44:46 15:47:58 41° 105° (ESE) 15:51:18 437.505
O/OREOS (USA 219) 02 Feb 15:46:03 15:50:33 79° 293° (WNW) 15:55:07 437.305
MOZHAYETS 4 02 Feb 15:48:38 15:49:56 11° 86° (E) 15:51:32
SO-50 02 Feb 15:52:23 15:54:38 13° 28° (NNE) 15:57:02 436.795
CUTE-I 02 Feb 15:58:51 16:01:02 13° 57° (ENE) 16:03:27 437.470
HORYU 2 02 Feb 16:03:13 16:06:10 16° 270° (W) 16:08:56 437.375
